FW1541 Weather Reports


Display with metric or nautical units.
time (UTC)temp
F
wind
direction
speed
MPH
gust
MPH
rain 1hr
in
rain 24hr
in
rain mn
in
humidity
%
barometer
mb
20200330232526 45 321 4.0 8.0 0.00 0.00 0.00 77 1013.3
20200330232021 45 310 6.0 11.0 0.00 0.00 0.00 76 1013.2
20200330231515 45 316 4.0 8.0 0.00 0.00 0.00 77 1013.2
20200330231026 45 315 4.0 8.0 0.00 0.00 0.00 76 1013.3
20200330230520 46 315 4.0 8.0 0.00 0.00 0.00 76 1013.1
20200330230031 46 319 4.0 9.0 0.00 0.00 0.00 76 1013.0
20200330225524 46 302 3.0 8.0 0.00 0.00 0.00 76 1013.0
20200330225018 46 311 4.0 9.0 0.00 0.00 0.00 76 1012.9
20200330224529 46 285 3.0 8.0 0.00 0.00 0.00 76 1013.0
20200330224023 46 293 3.0 8.0 0.00 0.00 0.00 75 1012.9
20200330223518 46 295 3.0 8.0 0.00 0.00 0.00 75 1012.8
20200330223029 46 290 4.0 8.0 0.00 0.00 0.00 75 1012.6
20200330222522 46 305 4.0 9.0 0.00 0.00 0.00 75 1012.7
20200330222016 46 293 3.0 10.0 0.00 0.00 0.00 75 1012.6
20200330221527 46 302 3.0 9.0 0.00 0.00 0.00 75 1012.3
20200330221021 47 289 3.0 10.0 0.00 0.00 0.00 75 1012.3
20200330220515 47 289 4.0 11.0 0.00 0.00 0.00 75 1012.3
20200330220026 47 291 3.0 10.0 0.00 0.00 0.00 74 1012.2
20200330215520 47 304 5.0 10.0 0.00 0.00 0.00 74 1012.1
20200330215031 47 294 4.0 11.0 0.00 0.00 0.00 74 1012.0
20200330214525 47 299 5.0 10.0 0.00 0.00 0.00 75 1012.0
20200330214019 47 292 3.0 13.0 0.00 0.00 0.00 75 1011.8
20200330213528 47 299 4.0 11.0 0.00 0.00 0.00 75 1011.8
20200330213022 47 287 4.0 11.0 0.00 0.00 0.00 75 1011.8
20200330212516 47 300 5.0 11.0 0.00 0.00 0.00 74 1011.6
20200330212027 47 296 4.0 11.0 0.00 0.00 0.00 74 1011.6
20200330211521 47 290 5.0 11.0 0.00 0.00 0.00 74 1011.5
20200330211015 47 293 6.0 14.0 0.00 0.00 0.00 74 1011.5
20200330210526 48 297 5.0 11.0 0.00 0.00 0.00 74 1011.4
20200330210020 48 298 4.0 9.0 0.00 0.00 0.00 74 1011.2
20200330205531 48 313 5.0 13.0 0.00 0.00 0.00 74 1011.1
20200330205025 48 297 5.0 13.0 0.00 0.00 0.00 73 1011.2
20200330204519 48 290 4.0 11.0 0.00 0.00 0.00 73 1011.2
20200330204030 48 293 3.0 8.0 0.00 0.00 0.00 72 1011.0
20200330203524 48 287 3.0 11.0 0.00 0.00 0.00 72 1011.1
20200330203018 48 307 5.0 11.0 0.00 0.00 0.00 72 1011.1
20200330202529 48 268 3.0 8.0 0.00 0.00 0.00 72 1011.1
20200330202023 49 275 3.0 7.0 0.00 0.00 0.00 72 1011.0
20200330201517 49 283 3.0 7.0 0.00 0.00 0.00 73 1011.0
20200330201028 48 299 4.0 8.0 0.00 0.00 0.00 73 1010.8
20200330200522 48 308 5.0 15.0 0.00 0.00 0.00 72 1010.9
20200330200016 48 283 4.0 17.0 0.00 0.00 0.00 73 1010.8
20200330195527 48 285 6.0 17.0 0.00 0.00 0.00 73 1010.8
20200330195021 48 290 5.0 14.0 0.00 0.00 0.00 73 1010.7
20200330194515 49 285 3.0 10.0 0.00 0.00 0.00 72 1010.7
20200330194026 49 283 3.0 10.0 0.00 0.00 0.00 72 1010.6
20200330193520 49 286 3.0 8.0 0.00 0.00 0.00 72 1010.6
20200330193031 48 278 3.0 13.0 0.00 0.00 0.00 73 1010.5
20200330192525 49 278 3.0 9.0 0.00 0.01 0.00 73 1010.6
20200330192019 48 274 3.0 10.0 0.00 0.01 0.00 73 1010.4
20200330191532 49 276 3.0 11.0 0.00 0.01 0.00 73 1010.5
20200330191024 48 253 3.0 8.0 0.00 0.01 0.00 73 1010.3
20200330190521 49 250 4.0 8.0 0.00 0.01 0.00 73 1010.4
20200330190029 49 246 3.0 9.0 0.00 0.01 0.00 73 1010.4
20200330185523 49 246 2.0 8.0 0.00 0.01 0.00 73 1010.4
20200330185017 48 253 3.0 9.0 0.00 0.01 0.00 73 1010.3
20200330184528 48 264 3.0 7.0 0.00 0.01 0.00 73 1010.3
20200330184022 48 241 3.0 8.0 0.00 0.01 0.00 73 1010.3
20200330183516 49 243 2.0 8.0 0.00 0.01 0.00 73 1010.3
20200330183027 49 250 3.0 11.0 0.00 0.01 0.00 74 1010.2
20200330182521 48 256 3.0 11.0 0.00 0.01 0.00 73 1010.2
20200330182015 48 244 3.0 10.0 0.00 0.01 0.00 74 1010.1
20200330181526 48 239 4.0 10.0 0.00 0.01 0.00 73 1010.1
20200330181020 49 245 4.0 11.0 0.00 0.01 0.00 73 1010.2
20200330180531 48 257 4.0 17.0 0.00 0.01 0.00 72 1010.0
20200330180025 49 287 4.0 17.0 0.00 0.01 0.00 72 1010.1
20200330175518 48 256 3.0 8.0 0.00 0.01 0.00 72 1010.1
20200330175030 48 249 4.0 13.0 0.00 0.01 0.00 72 1010.0
20200330174524 49 256 3.0 9.0 0.00 0.01 0.00 72 1010.1
20200330174018 49 241 3.0 8.0 0.00 0.01 0.00 72 1010.0
20200330173529 48 264 2.0 10.0 0.00 0.01 0.00 72 1009.9
20200330173022 48 266 4.0 11.0 0.00 0.01 0.00 72 1009.8
20200330172517 48 259 3.0 11.0 0.00 0.01 0.00 72 1009.7
20200330172026 48 251 3.0 9.0 0.00 0.01 0.00 71 1009.7
20200330171520 48 247 3.0 10.0 0.00 0.01 0.00 71 1009.7
20200330171015 48 263 3.0 10.0 0.00 0.01 0.00 72 1009.7
20200330170526 48 246 4.0 10.0 0.00 0.01 0.00 72 1009.7
20200330170020 48 250 3.0 10.0 0.00 0.01 0.00 73 1009.6
20200330165530 48 271 4.0 10.0 0.00 0.01 0.00 72 1009.6
20200330165025 48 250 3.0 10.0 0.00 0.01 0.00 71 1009.6
20200330164518 48 256 3.0 10.0 0.00 0.01 0.00 71 1009.7
20200330164029 49 267 4.0 10.0 0.00 0.01 0.00 71 1009.6
20200330163524 48 257 3.0 11.0 0.00 0.01 0.00 71 1009.5
20200330163018 48 276 2.0 11.0 0.00 0.01 0.00 72 1009.4
20200330162528 48 269 3.0 10.0 0.00 0.01 0.00 73 1009.5
20200330162020 48 251 3.0 8.0 0.00 0.01 0.00 74 1009.7
20200330161532 48 278 3.0 13.0 0.00 0.01 0.00 74 1009.5
20200330161025 47 260 2.0 8.0 0.00 0.01 0.00 75 1009.4
20200330160519 48 243 3.0 10.0 0.00 0.01 0.00 74 1009.5
20200330160030 48 261 2.0 9.0 0.00 0.01 0.00 74 1009.4
20200330155524 48 277 2.0 8.0 0.00 0.01 0.00 74 1009.5
20200330155018 47 271 3.0 8.0 0.00 0.01 0.00 74 1009.3
20200330154529 47 266 4.0 9.0 0.00 0.01 0.00 74 1009.4
20200330154023 47 258 3.0 8.0 0.00 0.01 0.00 74 1009.3
20200330153517 47 266 3.0 11.0 0.00 0.01 0.00 74 1009.3
20200330153028 47 274 3.0 9.0 0.00 0.01 0.00 74 1009.3
20200330152522 47 267 3.0 9.0 0.00 0.01 0.00 74 1009.3
20200330152016 47 258 3.0 13.0 0.00 0.01 0.00 74 1009.3
20200330151527 47 265 4.0 10.0 0.00 0.01 0.00 75 1009.3
20200330151021 47 262 3.0 9.0 0.00 0.01 0.00 75 1009.2
20200330150515 47 262 3.0 9.0 0.00 0.01 0.00 75 1009.2
20200330150025 47 271 4.0 9.0 0.00 0.01 0.00 76 1009.1
20200330145518 47 244 2.0 7.0 0.00 0.01 0.00 76 1009.1
20200330145029 46 266 2.0 8.0 0.00 0.01 0.00 77 1009.0
20200330144522 46 253 2.0 8.0 0.00 0.01 0.00 77 1009.0
20200330144017 46 245 2.0 6.0 0.00 0.02 0.00 78 1008.9
20200330143527 46 260 2.0 10.0 0.00 0.02 0.00 78 1009.0
20200330143021 46 260 3.0 8.0 0.00 0.02 0.00 78 1009.0
20200330142515 46 262 2.0 7.0 0.00 0.02 0.00 79 1008.8
20200330142026 46 236 2.0 4.0 0.00 0.02 0.00 79 1008.9
20200330141520 46 249 2.0 10.0 0.00 0.02 0.00 79 1008.9
20200330141031 46 245 3.0 9.0 0.00 0.02 0.00 79 1008.6
20200330140525 46 250 3.0 8.0 0.00 0.02 0.00 79 1008.6
20200330140019 46 257 3.0 11.0 0.00 0.02 0.00 79 1008.7
20200330135530 46 253 2.0 7.0 0.00 0.02 0.00 79 1008.6
20200330135024 46 257 2.0 6.0 0.00 0.02 0.00 79 1008.6
20200330134518 45 240 2.0 8.0 0.00 0.02 0.00 79 1008.5
20200330134029 45 247 2.0 9.0 0.00 0.02 0.00 79 1008.5
20200330133531 45 261 2.0 9.0 0.00 0.02 0.00 80 1008.4
20200330133025 45 251 2.0 8.0 0.00 0.02 0.00 80 1008.5
20200330132519 45 233 2.0 8.0 0.00 0.02 0.00 80 1008.4
20200330132030 45 260 2.0 9.0 0.00 0.02 0.00 79 1008.3
20200330131524 45 269 3.0 8.0 0.00 0.02 0.00 79 1008.3
20200330131018 45 253 2.0 7.0 0.00 0.06 0.00 79 1008.3
20200330130529 45 254 3.0 7.0 0.00 0.09 0.00 79 1008.4
20200330130023 45 267 3.0 10.0 0.00 0.09 0.00 79 1008.3
20200330125517 45 256 2.0 10.0 0.00 0.09 0.00 79 1008.3
20200330125028 45 253 2.0 9.0 0.00 0.09 0.00 79 1008.3
20200330124522 45 262 2.0 8.0 0.00 0.09 0.00 79 1008.3
20200330124016 45 272 2.0 8.0 0.00 0.09 0.00 78 1008.3
20200330123527 45 263 3.0 10.0 0.00 0.10 0.00 78 1008.1
20200330123021 45 273 2.0 7.0 0.00 0.10 0.00 78 1008.1
20200330122515 45 268 2.0 7.0 0.00 0.11 0.00 78 1008.1
20200330122026 45 270 3.0 11.0 0.00 0.12 0.00 78 1007.9
20200330121520 45 261 2.0 7.0 0.00 0.13 0.00 78 1008.0
20200330121031 46 264 3.0 10.0 0.00 0.14 0.00 77 1007.9
20200330120526 46 263 3.0 10.0 0.00 0.16 0.00 77 1007.8
20200330120018 46 264 4.0 15.0 0.00 0.18 0.00 76 1007.6
20200330115530 46 271 5.0 16.0 0.00 0.18 0.00 75 1007.7
20200330115023 46 266 2.0 8.0 0.00 0.18 0.00 74 1007.5
20200330114518 46 257 2.0 7.0 0.00 0.19 0.00 73 1007.4
20200330114028 46 251 2.0 7.0 0.00 0.19 0.00 73 1007.3
20200330113522 46 270 2.0 7.0 0.00 0.19 0.00 73 1007.2
20200330113017 46 242 1.0 7.0 0.00 0.20 0.00 73 1007.1
20200330112528 46 271 2.0 8.0 0.00 0.20 0.00 73 1007.0
20200330112022 46 246 2.0 7.0 0.00 0.21 0.00 73 1007.0
20200330111515 46 245 2.0 7.0 0.00 0.21 0.00 73 1007.0
20200330111027 46 241 2.0 9.0 0.00 0.21 0.00 73 1007.0
20200330110520 46 255 2.0 7.0 0.00 0.21 0.00 74 1006.8
20200330110031 46 251 3.0 8.0 0.00 0.22 0.00 73 1006.8
20200330105525 46 242 3.0 9.0 0.00 0.25 0.00 73 1006.9
20200330105019 46 256 2.0 8.0 0.00 0.29 0.00 73 1006.7
20200330104530 46 255 2.0 8.0 0.00 0.31 0.00 73 1006.8
20200330103518 46 251 3.0 7.0 0.00 0.34 0.00 73 1006.6
20200330103029 46 261 2.0 7.0 0.00 0.34 0.00 72 1006.8
20200330102523 46 261 2.0 7.0 0.00 0.34 0.00 73 1006.8
20200330102017 46 260 2.0 7.0 0.00 0.34 0.00 72 1006.7
20200330101528 47 261 2.0 8.0 0.00 0.34 0.00 72 1006.7
20200330101022 47 261 3.0 7.0 0.00 0.34 0.00 72 1006.6
20200330100516 47 267 3.0 8.0 0.00 0.34 0.00 72 1006.5
20200330100029 47 252 3.0 13.0 0.00 0.34 0.00 71 1006.4
20200330095521 47 252 3.0 13.0 0.00 0.34 0.00 71 1006.5
20200330095015 47 276 4.0 14.0 0.00 0.34 0.00 71 1006.5
20200330094526 47 256 3.0 15.0 0.00 0.34 0.00 71 1006.2
20200330094020 47 252 3.0 9.0 0.00 0.35 0.00 71 1006.4
20200330093531 47 264 3.0 9.0 0.00 0.35 0.00 71 1006.3
20200330093025 47 257 3.0 9.0 0.00 0.35 0.00 71 1006.3
20200330092520 48 251 3.0 11.0 0.00 0.35 0.00 70 1006.3
20200330092030 48 257 3.0 10.0 0.00 0.35 0.00 70 1006.2
20200330090532 48 265 3.0 9.0 0.00 0.35 0.00 69 1005.9
20200330090023 48 261 4.0 9.0 0.00 0.35 0.00 68 1006.0
20200330085517 49 260 4.0 13.0 0.00 0.35 0.00 68 1005.9
20200330085031 49 251 3.0 10.0 0.00 0.36 0.00 68 1005.9
20200330084523 49 258 4.0 15.0 0.00 0.36 0.00 68 1005.8
20200330084016 49 276 4.0 15.0 0.00 0.36 0.00 68 1005.8
20200330083527 49 274 2.0 8.0 0.00 0.38 0.00 68 1005.8
20200330083021 49 273 3.0 10.0 0.00 0.39 0.00 68 1005.7
20200330082515 49 280 3.0 9.0 0.00 0.40 0.00 69 1005.7
20200330082026 49 264 1.0 6.0 0.00 0.41 0.00 70 1005.7
20200330081520 49 269 2.0 7.0 0.00 0.41 0.00 69 1005.8
20200330081032 49 259 2.0 8.0 0.00 0.41 0.00 69 1005.8
20200330080525 49 243 2.0 7.0 0.00 0.41 0.00 70 1005.8
20200330080019 49 254 1.0 6.0 0.00 0.41 0.00 72 1005.9
20200330075530 49 253 1.0 6.0 0.00 0.41 0.00 72 1005.8
20200330075024 49 250 2.0 6.0 0.00 0.42 0.00 73 1005.9
20200330074518 49 260 1.0 3.0 0.00 0.42 0.00 75 1005.8
20200330074029 49 240 1.0 3.0 0.00 0.42 0.00 74 1005.7
20200330073523 49 260 0.0 4.0 0.00 0.42 0.00 74 1005.6
20200330073017 49 277 1.0 4.0 0.00 0.43 0.00 75 1005.5
20200330072528 49 275 1.0 3.0 0.00 0.43 0.00 75 1005.6
20200330072022 49 272 1.0 3.0 0.00 0.43 0.00 75 1005.6
20200330071516 49 267 0.0 3.0 0.00 0.44 0.00 75 1005.6
20200330071027 49 265 0.0 3.0 0.00 0.45 0.00 75 1005.7
20200330070521 49 270 0.0 1.0 0.00 0.45 0.00 74 1005.7
20200330070015 49 275 0.0 3.0 0.00 0.45 0.00 74 1005.7
20200330065526 49 286 0.0 1.0 0.00 0.46 0.00 74 1005.7
20200330065020 49 286 0.0 1.0 0.00 0.46 0.00 74 1005.6
20200330064530 49 281 0.0 2.0 0.00 0.46 0.00 74 1005.6
20200330064025 49 225 0.0 2.0 0.00 0.46 0.00 74 1005.8
20200330063519 49 227 1.0 2.0 0.00 0.46 0.00 73 1005.8
20200330063030 49 237 1.0 3.0 0.00 0.46 0.00 73 1005.9
20200330062524 49 248 0.0 3.0 0.00 0.46 0.00 74 1005.8
20200330062018 49 237 1.0 4.0 0.00 0.46 0.00 74 1005.9
20200330061531 50 254 0.0 3.0 0.00 0.46 0.00 75 1006.0
20200330061022 49 251 1.0 4.0 0.00 0.46 0.00 74 1005.9
20200330060517 49 226 2.0 8.0 0.00 0.46 0.00 74 1006.0
20200330060027 49 249 1.0 3.0 0.00 0.46 0.00 74 1006.0
20200330055521 49 231 1.0 7.0 0.00 0.46 0.00 74 1006.1
20200330055017 49 241 1.0 3.0 0.00 0.46 0.00 74 1006.0
20200330054527 49 232 1.0 3.0 0.00 0.46 0.00 74 1006.2
20200330054020 50 238 1.0 2.0 0.00 0.46 0.00 74 1006.2
20200330053514 50 248 1.0 8.0 0.00 0.46 0.00 74 1006.2
20200330053025 50 259 1.0 8.0 0.00 0.46 0.00 73 1006.4
20200330052520 50 234 2.0 7.0 0.00 0.46 0.00 73 1006.3
20200330052030 50 236 3.0 10.0 0.00 0.46 0.00 73 1006.3
20200330051524 50 237 2.0 8.0 0.00 0.46 0.00 73 1006.3
20200330051018 50 240 2.0 8.0 0.00 0.46 0.00 73 1006.4
20200330050529 51 229 3.0 11.0 0.00 0.46 0.00 72 1006.3
20200330050023 51 236 3.0 8.0 0.00 0.46 0.00 72 1006.2
20200330045517 51 248 2.0 7.0 0.00 0.46 0.00 73 1006.3
20200330045030 51 245 3.0 9.0 0.00 0.46 0.00 72 1006.2
20200330044521 51 244 3.0 8.0 0.00 0.46 0.00 72 1006.4
20200330044017 51 239 3.0 13.0 0.00 0.46 0.00 72 1006.4
20200330043526 51 238 3.0 8.0 0.00 0.46 0.00 72 1006.4
20200330043020 51 240 3.0 11.0 0.00 0.46 0.00 71 1006.6
20200330042530 51 252 3.0 8.0 0.00 0.46 0.00 71 1006.5
20200330042024 51 233 3.0 8.0 0.00 0.46 0.00 71 1006.5
20200330041518 51 246 4.0 10.0 0.00 0.46 0.00 72 1006.5
20200330041029 51 239 2.0 8.0 0.00 0.46 0.00 72 1006.5
20200330040523 51 239 3.0 10.0 0.00 0.46 0.00 73 1006.7
20200330040016 51 241 3.0 10.0 0.00 0.46 0.00 73 1006.7
20200330035527 51 215 3.0 11.0 0.00 0.46 0.46 73 1006.6
20200330035021 51 227 3.0 9.0 0.00 0.46 0.46 73 1006.8
20200330034515 51 226 3.0 11.0 0.00 0.46 0.46 73 1006.6
20200330034026 51 220 2.0 7.0 0.00 0.46 0.46 73 1006.6
20200330033520 51 227 3.0 10.0 0.00 0.46 0.46 73 1006.6
20200330033034 51 223 3.0 9.0 0.00 0.46 0.46 73 1006.6
20200330032525 51 226 3.0 11.0 0.00 0.46 0.46 72 1006.7
20200330032019 51 230 3.0 11.0 0.00 0.46 0.46 73 1006.8
20200330031530 51 226 4.0 10.0 0.00 0.46 0.46 73 1006.8
20200330031023 51 222 3.0 9.0 0.00 0.46 0.46 73 1006.9
20200330030517 51 214 4.0 10.0 0.00 0.46 0.46 72 1006.8
20200330030028 51 214 3.0 10.0 0.00 0.46 0.46 72 1006.8
20200330025522 51 224 3.0 11.0 0.00 0.46 0.46 72 1006.9
20200330025016 51 223 3.0 10.0 0.00 0.46 0.46 72 1007.0
20200330024527 51 242 3.0 9.0 0.00 0.46 0.46 72 1007.0
20200330024021 51 236 3.0 9.0 0.00 0.46 0.46 72 1007.0
20200330023515 51 232 4.0 11.0 0.00 0.46 0.46 72 1007.0
20200330023026 51 222 3.0 8.0 0.00 0.46 0.46 73 1007.1
20200330022520 51 246 3.0 11.0 0.00 0.46 0.46 73 1007.0
20200330022031 51 243 3.0 9.0 0.00 0.46 0.46 73 1007.1
20200330021525 51 232 4.0 14.0 0.00 0.46 0.46 73 1007.0
20200330021019 51 238 3.0 9.0 0.00 0.46 0.46 73 1007.0
20200330020530 51 226 2.0 14.0 0.00 0.46 0.46 73 1007.0
20200330020024 51 248 4.0 10.0 0.00 0.46 0.46 73 1007.1
20200330015518 51 232 4.0 13.0 0.00 0.46 0.46 73 1006.9
20200330015029 51 253 4.0 16.0 0.00 0.46 0.46 73 1006.9
20200330014523 51 228 4.0 16.0 0.00 0.46 0.46 72 1007.0
20200330014018 51 236 3.0 11.0 0.00 0.46 0.46 72 1006.9
20200330013528 51 250 4.0 10.0 0.00 0.46 0.46 72 1006.9
20200330013022 51 235 3.0 10.0 0.00 0.46 0.46 72 1006.8
20200330012517 51 235 3.0 17.0 0.00 0.46 0.46 71 1006.9
20200330012027 51 247 3.0 9.0 0.00 0.46 0.46 71 1006.7
20200330011521 52 241 3.0 10.0 0.00 0.46 0.46 71 1006.6
20200330011016 52 237 5.0 14.0 0.00 0.46 0.46 70 1006.5
20200330010526 52 232 4.0 13.0 0.00 0.46 0.46 70 1006.5
20200330010020 52 242 3.0 11.0 0.00 0.46 0.46 70 1006.4
20200330005531 52 234 6.0 11.0 0.00 0.46 0.46 70 1006.3
20200330005024 52 226 4.0 11.0 0.00 0.46 0.46 71 1006.2
20200330004519 52 223 5.0 17.0 0.00 0.46 0.46 71 1005.8
20200330004029 52 228 5.0 15.0 0.00 0.46 0.46 71 1005.7
20200330003523 52 234 5.0 17.0 0.00 0.46 0.46 72 1005.7
20200330003018 52 247 5.0 16.0 0.00 0.46 0.46 72 1005.5
20200330002532 52 244 6.0 18.0 0.00 0.46 0.46 71 1005.4
20200330002023 53 244 6.0 14.0 0.00 0.46 0.46 70 1005.1
20200330001517 53 240 4.0 15.0 0.00 0.46 0.46 68 1005.0
20200330001028 54 240 6.0 21.0 0.00 0.46 0.46 65 1005.0
20200330000521 55 215 7.0 21.0 0.00 0.46 0.46 63 1004.9
20200330000015 55 225 4.0 11.0 0.00 0.46 0.46 61 1004.8
20200329235526 55 244 5.0 11.0 0.00 0.46 0.46 60 1004.6
20200329235020 54 251 3.0 8.0 0.00 0.46 0.46 61 1004.5
20200329234531 55 249 3.0 8.0 0.00 0.46 0.46 61 1004.3
20200329234025 55 243 3.0 8.0 0.00 0.46 0.46 61 1004.4
20200329233519 55 271 3.0 10.0 0.00 0.46 0.46 60 1004.3
20200329233030 55 237 3.0 10.0 0.00 0.46 0.46 60 1004.1